Location: Byszew
(52.1813°N, 19.2693°E)
Time: 20:01:47
(UTC+00:00)

Cosmos 1461 - Pass Details

Date: 03 March 2021
Orbit: 505 x 659 km, 65.0° (Epoch: 15 April)

Event Time Altitude Azimuth Distance (km) Brightness Sun altitude
Rises 17:31:02 0° 226° (SW) 2,970 7.2 -10.7°
Reaches altitude 10° 17:33:19 10° 228° (SW) 2,069 6.4 -11.1°
Maximum altitude 17:38:03 76° 314° (NW) 685 3.4 -11.8°
Drops below altitude 10° 17:42:47 10° 41° (NE) 2,071 5.4 -12.5°
Enters shadow 17:44:08 - 42° (NE) 2,598 5.9 -12.7°
